[[{"header":{"parameterUnit":"m.s-1","parameterCategory":1,"la1":30.2991,"la2":30.254,"lo1":-89.0895,"lo2":-89.0444,"dy":0.0017,"dx":0.0017,"nx":28,"ny":28,"refTime":"2025-05-26T21:00:00:Z","depth":0,"parameterNumber":2,"parameterNumberName":"U-component_of_WINDS"},"data":[0,0,0,0,0,0,0,0,0,0,0,0,0,0,0,0,0,0,0,0,0,0,0,0,0,0,0,0,0,0,0,0,0,0,0,0,0,0,0,0,0,0,0,0,0,0,0,0,0,0,0,0,0,0,0,0,0,0,0.0531,0.0531,0,0.0537,0.0537,0.0537,0.0528,0.0528,0.0528,0.0527,0.0534,0.0534,0.0534,0,0,0,0,0,0,0,0,0,0,0,0,0,0.0512,0.0512,0.0531,0.0531,0.0531,0.0537,0.0537,0.0537,0.0528,0.0528,0.0528,0.0527,0.0533,0.0534,0.0535,0,0,0,0,0,0,0,0,0,0,0,0,0,0.0519,0.0512,0.0531,0.0528,0.0527,0.0537,0.0537,0.0537,0.0528,0.0528,0.0527,0.0527,0.0533,0.0534,0.0535,0.0548,0,0,0.0537,0.0537,0,0,0,0,0,0,0,0,0.0519,0.052,0.0528,0.0528,0.0527,0.0531,0.0532,0.0541,0.0529,0.0528,0.0527,0.0527,0.0533,0.0534,0.0536,0.0548,0.0548,0.0537,0.0537,0.0537,0.0538,0,0,0,0,0,0,0,0.0518,0.052,0.0533,0.0528,0.0528,0.0525,0.0526,0.0534,0.0533,0.0528,0.0527,0.0528,0.0533,0.0535,0.0536,0.0548,0.0537,0.0537,0.0538,0.0538,0.057,0.057,0,0,0,0,0,0,0.0518,0.0519,0.0533,0.0533,0.0522,0.0526,0.0527,0.0531,0.0533,0.0533,0.0529,0.0528,0.0534,0.0535,0.0536,0.0551,0.0537,0.0538,0.0538,0.057,0.057,0.0571,0,0,0,0,0,0,0.0518,0.052,0.0533,0.0526,0.0528,0.0527,0.0531,0.0531,0.0533,0.0533,0.0533,0.0531,0.0534,0.0535,0.0545,0.0551,0.0538,0.0539,0.0569,0.057,0.057,0.0581,0,0,0,0,0,0,0.0517,0.0519,0.0525,0.0526,0.0528,0.0541,0.0532,0.0531,0.0534,0.0533,0.0536,0.0536,0.0534,0.0544,0.0545,0.0552,0.0539,0.0568,0.0569,0.057,0.058,0.0582,0.0583,0,0,0,0,0,0.0517,0.0528,0.0525,0.0527,0.0535,0.0542,0.0543,0.054,0.0535,0.054,0.054,0.0536,0.055,0.0545,0.0546,0.0553,0.0568,0.0569,0.057,0.0579,0.0581,0.0583,0,0,0,0,0,0,0.0528,0.0528,0.0525,0.0537,0.0539,0.054,0.0547,0.0543,0.0547,0.0546,0.0543,0.0543,0.0553,0.0554,0.0548,0.0565,0.0558,0.0559,0.0564,0.0566,0.0568,0.0568,0.054,0,0,0,0,0,0.0531,0.0537,0.0537,0.0548,0.0549,0.0548,0.0551,0.0548,0.0551,0.0552,0.0552,0.0555,0.056,0.0563,0.0568,0.058,0.058,0.0585,0.0587,0.0588,0.0589,0.0595,0.0597,0.0574,0.0574,0.0574,0,0,0.0539,0.054,0.0544,0.055,0.0551,0.0557,0.0549,0.0555,0.0559,0.0553,0.0561,0.0562,0.0564,0.0575,0.0579,0.0576,0.0596,0.059,0.0591,0.0591,0.0596,0.0598,0.06,0.0575,0.0574,0.0574,0,0,0.0556,0.0558,0.0566,0.0568,0.057,0.0569,0.0571,0.0572,0.0572,0.058,0.0575,0.058,0.0589,0.059,0.0592,0.0608,0.0604,0.061,0.0619,0.0624,0.0626,0.0627,0.0632,0.0634,0.0611,0.0611,0.0611,0,0.0566,0.0574,0.0571,0.0578,0.058,0.0574,0.0582,0.0583,0.0587,0.0589,0.0585,0.0595,0.0596,0.0606,0.061,0.0612,0.0613,0.061,0.0626,0.0627,0.0629,0.0633,0.0635,0.0612,0.0612,0.0612,0.0611,0,0.0586,0.0591,0.0598,0.0601,0.0604,0.0611,0.0609,0.0612,0.0609,0.0608,0.0616,0.0617,0.0621,0.0624,0.0621,0.0633,0.0631,0.0626,0.0619,0.0632,0.0636,0.0638,0.0613,0.0612,0.0612,0.0612,0,0,0.0611,0.0611,0.0613,0.0614,0.0615,0.0619,0.0626,0.063,0.0632,0.0635,0.064,0.0647,0.0642,0.0644,0.0642,0.0646,0.0658,0.0641,0.0641,0.0644,0.067,0.0673,0.0675,0.0655,0.0655,0.0656,0.0669,0,0.0627,0.0638,0.0635,0.0646,0.0651,0.0644,0.065,0.0651,0.065,0.0654,0.0653,0.0657,0.0651,0.0652,0.0656,0.0656,0.0663,0.0655,0.0659,0.066,0.0659,0.0677,0.0681,0.0694,0.0671,0.0671,0.0671,0,0.0648,0.065,0.0662,0.0661,0.0663,0.0668,0.067,0.0674,0.0675,0.0674,0.0675,0.0672,0.0678,0.067,0.0678,0.0672,0.0674,0.0674,0.0674,0.0674,0.0666,0.0677,0.0698,0.0699,0.0674,0.0674,0.0674,0,0.0664,0.067,0.0677,0.0678,0.0678,0.0681,0.0681,0.0682,0.0684,0.0686,0.0687,0.069,0.0691,0.0693,0.069,0.0685,0.0698,0.0691,0.0697,0.0697,0.07,0.0699,0.072,0.0701,0.0701,0.0701,0.0701,0,0.0682,0.0689,0.0684,0.0689,0.0696,0.0692,0.0699,0.0699,0.0699,0.0703,0.0697,0.0701,0.0697,0.07,0.0698,0.0704,0.0705,0.0704,0.0703,0.0704,0.0704,0.0705,0.0704,0.0702,0.0702,0.0702,0.0702,0,0.0701,0.0698,0.0706,0.0704,0.0704,0.071,0.0708,0.0712,0.071,0.0715,0.0716,0.0713,0.0716,0.0713,0.0717,0.0715,0.0723,0.0721,0.0723,0.0722,0.0728,0.0727,0.075,0.0752,0.0732,0.0733,0.0733,0,0.0713,0.0718,0.0717,0.0719,0.0719,0.0723,0.0724,0.072,0.0722,0.0722,0.0726,0.0729,0.0731,0.0736,0.0734,0.0737,0.0735,0.0742,0.0735,0.0735,0.0734,0.0734,0.0734,0.0744,0.0744,0.0744,0.0744,0,0.0734,0.0732,0.0735,0.0736,0.0738,0.074,0.074,0.0742,0.0738,0.074,0.0743,0.0745,0.0747,0.075,0.0751,0.0751,0.0747,0.0746,0.0748,0.0749,0.0749,0.0748,0.0726,0.0746,0.0746,0.0746,0.0746,0.0746,0.075,0.0753,0.0753,0.0755,0.0755,0.0756,0.0759,0.0757,0.0759,0.0761,0.0758,0.0762,0.0762,0.0763,0.0763,0.0766,0.0762,0.0765,0.0765,0.0766,0.0766,0.0749,0.0766,0.0766,0.0766,0.0766,0.0766,0,0.077,0.0768,0.0771,0.0772,0.0774,0.0769,0.0769,0.0771,0.0774,0.0774,0.0776,0.0779,0.0781,0.0779,0.078,0.0783,0.0781,0.0783,0.0783,0.0783,0.0769,0.0768,0.0785,0.0785,0.0785,0.0785,0.0785,0.0785,0.078,0.0786,0.0784,0.0789,0.0788,0.0791,0.0791,0.0791,0.0791,0.0795,0.0796,0.0795,0.0793,0.0795,0.0796,0.0796,0.0796,0.0799,0.0798,0.0786,0.0784,0.0782,0.078,0.08,0.08,0.0811,0.0811,0.0811]},{"header":{"parameterUnit":"m.s-1","parameterCategory":1,"la1":30.2991,"la2":30.254,"lo1":-89.0895,"lo2":-89.0444,"dy":0.0017,"dx":0.0017,"nx":28,"ny":28,"refTime":"2025-05-26T21:00:00:Z","depth":0,"parameterNumber":3,"parameterNumberName":"V-component_of_WINDS"},"data":[0,0,0,0,0,0,0,0,0,0,0,0,0,0,0,0,0,0,0,0,0,0,0,0,0,0,0,0,0,0,0,0,0,0,0,0,0,0,0,0,0,0,0,0,0,0,0,0,0,0,0,0,0,0,0,0,0,0,3.9855,3.9855,0,3.9904,3.9905,3.9905,3.9862,3.9861,3.9859,3.9857,3.9904,3.9907,3.991,0,0,0,0,0,0,0,0,0,0,0,0,0,3.9719,3.9722,3.9855,3.9856,3.9856,3.9904,3.9905,3.9905,3.9863,3.986,3.9858,3.9856,3.9903,3.9906,3.991,0,0,0,0,0,0,0,0,0,0,0,0,0,3.9774,3.9723,3.9855,3.9841,3.984,3.9904,3.9905,3.9906,3.9863,3.986,3.9858,3.9855,3.9902,3.9906,3.991,3.999,0,0,3.9924,3.9925,0,0,0,0,0,0,0,0,3.9771,3.9779,3.9842,3.9842,3.9841,3.9875,3.9874,3.9934,3.9864,3.9854,3.9857,3.9854,3.9896,3.9901,3.9916,3.9992,3.9994,3.9924,3.9927,3.9928,3.993,0,0,0,0,0,0,0,3.9768,3.9777,3.9874,3.9843,3.9842,3.983,3.9835,3.9885,3.9889,3.9855,3.9852,3.9858,3.9895,3.9912,3.9916,3.9995,3.9924,3.9928,3.993,3.9932,4.0138,4.0141,0,0,0,0,0,0,3.9766,3.9774,3.9873,3.9876,3.9799,3.9835,3.9841,3.9866,3.9889,3.9889,3.9861,3.9856,3.9905,3.9911,3.9918,4.0012,3.9928,3.9932,3.9935,4.0135,4.0139,4.0142,0,0,0,0,0,0,3.9763,3.9775,3.9871,3.9824,3.9836,3.984,3.987,3.9869,3.9885,3.9893,3.9893,3.9877,3.9904,3.9912,3.9972,4.0013,3.9934,3.9938,4.0132,4.0137,4.0141,4.0202,0,0,0,0,0,0,3.9759,3.9774,3.9806,3.9825,3.9838,3.9926,3.9872,3.9872,3.9893,3.9888,3.9908,3.9909,3.9902,3.9966,3.9977,4.0018,3.9942,4.0128,4.0134,4.0139,4.0196,4.0208,4.0218,0,0,0,0,0,3.9755,3.982,3.9807,3.982,3.9878,3.9928,3.9936,3.9927,3.9897,3.9927,3.9932,3.9908,4.0007,3.9973,3.9984,4.0027,4.0126,4.0132,4.0139,4.0192,4.0206,4.0218,0,0,0,0,0,0,3.9804,3.9822,3.9809,3.9883,3.9905,3.9921,3.996,3.9943,3.9972,3.9966,3.9953,3.9958,4.0022,4.0031,3.9992,4.0105,4.0061,4.007,4.0098,4.0111,4.0122,4.0118,3.9945,0,0,0,0,0,3.9823,3.9865,3.9878,3.9942,3.9954,3.9955,3.9977,3.9969,3.999,3.9999,4.0008,4.0029,4.0064,4.0088,4.0121,4.0197,4.0201,4.0232,4.0243,4.0252,4.026,4.03,4.0314,4.0163,4.0163,4.0163,0,0,3.9864,3.9879,3.9906,3.9952,3.9968,4.001,3.9963,4.0009,4.0039,4.0005,4.0064,4.0071,4.0093,4.0162,4.0193,4.0171,4.0302,4.026,4.0267,4.027,4.0308,4.0323,4.0335,4.0168,4.0167,4.0166,0,0,3.9959,3.9975,4.0031,4.0048,4.0073,4.0073,4.0087,4.0106,4.011,4.0169,4.0144,4.0179,4.0241,4.0258,4.0274,4.0376,4.0355,4.0387,4.0443,4.0483,4.0494,4.0505,4.0541,4.0554,4.0395,4.0395,4.0395,0,4.0006,4.007,4.0061,4.0109,4.013,4.0102,4.0157,4.0173,4.0208,4.0222,4.0197,4.0274,4.0287,4.0359,4.0384,4.0399,4.0413,4.0385,4.0494,4.0504,4.0514,4.0548,4.0562,4.0399,4.0398,4.0398,4.0398,0,4.0126,4.017,4.0211,4.0246,4.0272,4.0323,4.0321,4.0347,4.0337,4.0339,4.0399,4.0413,4.0449,4.0465,4.0455,4.0536,4.0522,4.0496,4.0451,4.0532,4.0564,4.0577,4.0404,4.0403,4.0402,4.0401,0,0,4.0254,4.0284,4.0299,4.0315,4.034,4.0373,4.0423,4.0459,4.0482,4.0506,4.0547,4.06,4.0576,4.0595,4.0586,4.0621,4.07,4.059,4.059,4.061,4.079,4.0809,4.0825,4.0686,4.0689,4.069,4.0788,0,4.035,4.0438,4.0431,4.0513,4.0554,4.0528,4.0571,4.059,4.0594,4.0627,4.0631,4.0669,4.0634,4.0646,4.0679,4.0683,4.0736,4.0676,4.0723,4.0725,4.0718,4.0841,4.0862,4.0953,4.08,4.0802,4.0804,0,4.0474,4.0505,4.0591,4.0611,4.0628,4.0667,4.0699,4.0732,4.0753,4.0753,4.0775,4.076,4.0808,4.0763,4.0829,4.0789,4.0807,4.0812,4.0816,4.082,4.0769,4.0848,4.0982,4.0996,4.0823,4.0822,4.082,0,4.0559,4.0621,4.0681,4.0695,4.0719,4.0747,4.0759,4.0777,4.08,4.0827,4.0841,4.0874,4.0892,4.0917,4.0911,4.0879,4.0978,4.0933,4.0979,4.0979,4.1001,4.1,4.114,4.1014,4.1013,4.1013,4.1013,0,4.0667,4.0721,4.0719,4.0756,4.0816,4.0807,4.0865,4.0873,4.089,4.0927,4.0906,4.0941,4.0931,4.0965,4.096,4.1016,4.1024,4.1024,4.1022,4.1026,4.1026,4.1038,4.1032,4.1017,4.1016,4.1015,4.1015,0,4.0772,4.0773,4.0836,4.0855,4.086,4.0903,4.0918,4.0952,4.0954,4.1001,4.1012,4.1014,4.1053,4.105,4.1093,4.109,4.1159,4.1149,4.1152,4.115,4.1197,4.1192,4.1349,4.1369,4.123,4.1231,4.1232,0,4.0841,4.0882,4.0905,4.0929,4.0943,4.0981,4.1004,4.0996,4.1021,4.1048,4.1079,4.1116,4.1146,4.1209,4.1214,4.1247,4.1238,4.1291,4.1243,4.1245,4.1239,4.1236,4.124,4.13,4.1302,4.1303,4.1304,0,4.0964,4.0962,4.0997,4.1031,4.106,4.1086,4.111,4.1131,4.1125,4.1154,4.1194,4.1217,4.1262,4.1299,4.133,4.134,4.1321,4.1319,4.1332,4.1336,4.1336,4.1337,4.1178,4.1315,4.1314,4.1313,4.1313,4.1312,4.1052,4.1088,4.111,4.1149,4.1166,4.119,4.1223,4.1229,4.1263,4.13,4.1293,4.1338,4.1358,4.1398,4.1411,4.1446,4.1426,4.1445,4.1449,4.1454,4.1459,4.1331,4.1451,4.1451,4.145,4.145,4.145,0,4.1174,4.1187,4.1223,4.1258,4.1289,4.127,4.1295,4.1321,4.1362,4.1383,4.1412,4.1458,4.1494,4.1502,4.1536,4.1562,4.1554,4.1571,4.1569,4.1572,4.1474,4.146,4.1577,4.1577,4.1577,4.1577,4.1577,4.1577,4.1241,4.13,4.1301,4.1368,4.138,4.1426,4.1442,4.1463,4.1479,4.1532,4.1562,4.1568,4.1583,4.1618,4.1649,4.165,4.1664,4.1684,4.1682,4.1591,4.1579,4.1566,4.1553,4.1687,4.1688,4.1777,4.1777,4.1778]}]]